Regional Weather Roundup
Issued by NWS Sterling, VA

Home | Current Version | Previous Version | Graphics & Text | Print | Product List | Glossary On
Versions: 1 2 3 4 5 6 7 8 9 10 11 12 13 14 15 16 17 18 19 20 21 22 23 24 25 26 27
000
ASUS41 KLWX 250111
RWRLWX

REGIONAL WEATHER ROUNDUP
NATIONAL WEATHER SERVICE BALTIMORE MD/WASHINGTON DC
900 PM EDT SUN SEP 24 2017

Note: "FAIR" indicates few or no clouds below 12,000 feet
with no significant weather and/or obstructions to visibility.
 TC=TEMPERATURE CELSIUS

 * =Non NWS site. Station does not report precipitation (e.g. rain,
    snow, etc.), thunder, or fog.

DCZ001-MDZ009-015-VAZ040>042-051-053>054-250200-
WASHINGTON METRO

CITY           SKY/WX    TMP DP  RH WIND       PRES   REMARKS
WASHINGTON NAT PTCLDY    80  70  71 CALM      30.05S
DULLES         PTCLDY    73  67  81 CALM      30.06R
ANDREWS AFB    CLEAR     73  66  80 CALM      30.05R
FT BELVOIR     CLEAR     71  67  89 CALM      30.05R
QUANTICO       CLEAR     74  72  93 NW9       30.05S
COLLEGE PARK*  CLEAR     71  67  88 CALM      30.05R
LEESBURG*      CLEAR     73  70  88 CALM      30.08R
MANASSAS*      CLEAR     70  67  90 CALM      30.06R
GAITHERSBURG*  CLEAR     70  68  93 CALM      30.08S

$$

MDZ006>007-011-014-250200-
BALTIMORE METRO

CITY           SKY/WX    TMP DP  RH WIND       PRES   REMARKS
BWI AIRPORT    PTCLDY    72  67  84 W3        30.05R
MD SCIENCE CTR   N/A     84  64  50 MISG      30.05R
MARTIN STATE   CLEAR     75  72  88 CALM      30.06R
ANNAPOLIS      CLEAR     78  74  87 NW5       30.04R
FORT MEADE*    CLEAR     68  66  94 CALM      30.08R

$$

MDZ012-015-019>023-250200-
MARYLAND EASTERN SHORE

CITY           SKY/WX    TMP DP  RH WIND       PRES   REMARKS
OCEAN CITY     CLEAR     66  65  96 N3        30.04S
SALISBURY      CLEAR     71  66  84 CALM      30.04R
CAMBRIDGE*     CLEAR     72  68  88 CALM      30.04R
EASTON*        CLEAR     75  64  69 CALM      30.08S

$$

MDZ017>025-250200-
SOUTHERN MARYLAND

CITY           SKY/WX    TMP DP  RH WIND       PRES   REMARKS
PATUXENT RIVER CLEAR     69  67  93 NW3       30.03S
ST INIGOES     CLEAR     67  65  93 CALM      30.03R
LEONARDTOWN*   CLEAR     70  66  88 CALM      30.06R

$$

MDZ003>005-250200-
NORTH CENTRAL MARYLAND

CITY           SKY/WX    TMP DP  RH WIND       PRES   REMARKS
FREDERICK*     NOT AVBL
HAGERSTOWN APT CLEAR     81  66  60 E3        30.08R
WESTMINSTER*   CLEAR     75  68  78 CALM      30.09R

$$

MDZ501>502-250200-
WESTERN MARYLAND

CITY           SKY/WX    TMP DP  RH WIND       PRES   REMARKS
OAKLAND*       CLEAR     70  61  73 E5        30.18S
CUMBERLAND*    MOCLDY    79  64  61 N5        30.12S

$$

VAZ025>031-250200-
SHENANDOAH VALLEY

CITY           SKY/WX    TMP DP  RH WIND       PRES   REMARKS
WINCHESTER*    CLEAR     68  63  83 CALM      30.08S
FRONT ROYAL*   CLEAR     70  64  83 CALM      30.08R
LURAY*         CLEAR     72  63  73 CALM      30.10R
NEW MARKET*    CLEAR     69  60  73 CALM      30.09R
STAUNTON*      CLEAR     68  62  82 NW3       30.12R
WAYNESBORO*    CLEAR     73  64  71 CALM      30.11S

$$

WVZ021-048>050-054>055-250200-
EASTERN WEST VIRGINIA PANHANDLE

CITY           SKY/WX    TMP DP  RH WIND       PRES   REMARKS
MARTINSBURG    CLEAR     71  65  81 CALM      30.07R
PETERSBURG*    CLEAR     71  65  83 NW5       30.10R

$$

VAZ036>039-050-250200-
CENTRAL FOOTHILLS

CITY           SKY/WX    TMP DP  RH WIND       PRES   REMARKS
CHARLOTTESVILL CLEAR     74  66  76 N3        30.07R
CULPEPER*      CLEAR     70  67  91 CALM      30.07R
ORANGE*        CLEAR     68  64  88 CALM      30.06S
GORDONSVILLE*  CLEAR     70  67  92 CALM      30.07R
WARRENTON*     CLEAR     68  62  83 CALM      30.06R

$$

VAZ055>057-250200-
NORTH AND CENTRAL PIEDMONT

CITY           SKY/WX    TMP DP  RH WIND       PRES   REMARKS
FREDERICKSBRG* CLEAR     72  67  86 CALM      30.04S
STAFFORD*      CLEAR     67  67 100 CALM      30.09S

$$

NCZ024-NYZ072-PAZ021-071-VAZ022-071-250200-
OTHER REGIONAL OBSERVATIONS

CITY           SKY/WX    TMP DP  RH WIND       PRES   REMARKS
NEW YORK CITY  CLEAR     78  63  59 S3        30.08R
PHILADELPHIA   CLEAR     78  65  63 S5        30.05S
PITTSBURGH     PTCLDY    77  63  61 CALM      30.10S
ROANOKE        CLEAR     73  62  68 W3        30.11R
RICHMOND       PTCLDY    74  62  66 CALM      30.04R
RALEIGH        MOCLDY    72  61  68 NE5       30.03R

$$

ANZ530>537-250200-
MARINE OBSERVATIONS

STATION/POSITION TIME  TEMP    WIND        PRES
                       AIR SEA DIR/SP/G
                 (UTC) (F)     (DEG/KT/KT) (MB)
THOMAS PT LIGHT  0100   79 77     CALM       N/A
BALT KEY BRIDGE  0048   79     260/  2/  3 1017.4R
COVE POINT       0048   77     280/  2/  2 1017.9R
LEWISETTA        0048   75 78  290/  2/  2 1016.9S
SOLOMONS ISLAND  0048   76 78  340/  2/  2 1016.7R
PINEY POINT      0048           CALM  /  1   N/A

$$





USA.gov is the U.S. government's official web portal to all federal, state and local government web resources and services.